Location: *
(45.4590°N, 16.3650°E)
Time: 05:55:34
(UTC+00:00)

Cosmos 2218 Rocket - Pass Details

Date: 17 January 2020
Orbit: 956 x 1006 km, 82.9° (Epoch: 24 February)

Event Time Altitude Azimuth Distance (km) Brightness Sun altitude
Rises 18:16:53 0° 189° (S) 3,674 7.2 -27.1°
Reaches altitude 10° 18:19:22 10° 190° (S) 2,737 6.5 -27.6°
Maximum altitude 18:25:41 81° 278° (W) 1,013 4.0 -28.7°
Drops below altitude 10° 18:32:06 10° 7° (N) 2,785 6.3 -29.8°
Sets 18:34:40 0° 8° (N) 3,743 7.0 -30.2°
